Location: Božkovice
(49.6920°N, 14.6201°E)
Time: 15:41:23
(UTC+00:00)

Daily predictions for brighter satellites

Satellite Brightness Start Highest point End
(mag) Time Altitude Azimuth Time Altitude Azimuth Time Altitude Azimuth
Cosmos 2184 Rocket 4.1 19:36:56 10° S 19:43:15 69° E 19:49:31 10° NNE
ERS-1 Rocket 3.1 19:39:26 10° SSE 19:44:23 66° ENE 19:49:22 10° N
Spot 2 Rocket 3.9 19:40:20 10° SE 19:45:16 51° ENE 19:50:12 10° N
ATLAS 5 CENTAUR R/B 1.1 19:42:38 10° SW 19:45:57 79° NW 19:49:41 10° NE
Cosmos 1844 Rocket 2.8 19:44:59 10° SSW 19:50:34 85° WNW 19:56:11 10° NNE
Cosmos 2278 Rocket 4.1 19:51:23 10° ESE 19:52:23 10° E 19:53:22 10° E
Resurs 01 Rocket 4.0 19:50:58 10° SW 19:54:20 21° W 19:57:43 10° NW
SWAS 4.4 19:50:53 10° SSW 19:55:03 68° ESE 19:59:15 10° NE
USA 307 3.4 19:53:05 10° W 19:56:57 57° NNW 20:00:42 10° ENE
MetOp-B 4.5 19:52:14 10° S 19:57:34 69° WSW 20:02:56 10° NNW
Cosmos 1606 3.2 19:57:34 10° N 20:00:57 39° ENE 20:04:09 11° SE
Okean O Rocket 3.7 19:58:06 10° SSW 20:01:39 25° W 20:05:13 10° NW
CZ-4C R/B 4.4 19:56:55 10° NW 20:02:08 27° NNE 20:08:23 10° ENE
IRS-1C Rocket 4.3 19:58:43 10° S 20:03:58 74° WSW 20:09:16 10° NNW
SL-23 DEB 4.2 20:02:11 10° WNW 20:05:50 87° NNE 20:11:45 10° ESE
Cosmos 2154 Rocket 4.1 20:01:10 10° S 20:07:30 84° E 20:13:54 10° N
Cosmos 2074 Rocket 4.2 20:02:51 10° SSW 20:09:06 78° W 20:15:26 10° N
Cosmos 1048 Rocket 4.3 20:04:24 10° NNW 20:09:45 73° WSW 20:15:05 10° SSE
Meteor 2-11 Rocket 4.5 20:05:01 10° S 20:11:08 85° E 20:17:19 10° N
Cosmos 1869 3.5 20:08:08 10° N 20:11:53 51° ENE 20:15:15 12° SSE
Ariane Rocket 3.0 20:07:31 10° SSE 20:12:35 78° ENE 20:17:39 10° NNW
SPOT 5 4.0 20:12:11 10° S 20:16:52 44° W 20:21:49 10° NNW
MOS 1 Rocket 3.3 20:12:13 10° S 20:16:53 78° WSW 20:21:21 10° NNW
ATLAS 3B R/B 4.5 20:14:46 10° ESE 20:16:56 11° E 20:19:09 10° E
Cosmos 921 Rocket 3.6 20:13:13 10° NNW 20:17:16 51° WSW 20:21:20 10° S
ISS -3.3 20:15:06 10° W 20:18:24 65° N 20:21:43 10° ENE
USA 215 4.2 20:16:11 10° SSE 20:22:07 36° SW 20:28:06 10° WNW
ARIANE 5 R/B 4.4 20:21:41 10° ESE 20:24:54 20° ENE 20:28:10 10° NNE
GENESIS II 4.3 20:23:34 10° NW 20:27:06 56° NE 20:29:52 15° ESE
Cosmos 2228 3.4 20:24:21 10° N 20:28:26 47° ENE 20:31:33 16° SE
NOSS 2-3 (D) 3.1 20:25:10 10° SW 20:28:49 74° SE 20:32:56 10° NE
Cosmos 1943 Rocket 4.0 20:26:52 11° ESE 20:28:57 13° E 20:31:31 10° ENE
Geosat 4.2 20:25:56 10° NE 20:30:50 52° ESE 20:35:43 10° SSW
CZ-4C R/B 4.5 20:29:05 10° N 20:32:37 41° WNW 20:36:00 10° SW
Timation 2 Rocket 3.9 20:27:14 10° SSW 20:33:34 87° ESE 20:39:41 10° NNE
Gbstr 26 Del rocket 3.5 20:29:51 10° W 20:34:20 75° N 20:39:54 10° ENE
Cosmos 1125 Rocket 3.5 20:30:12 10° SSW 20:35:28 74° ESE 20:40:47 10° NNE
Cosmos 2150 Rocket 4.4 20:34:09 10° S 20:39:16 46° ESE 20:44:29 10° NNE
NOSS 3-1 (C) 3.9 20:37:12 14° SSE 20:40:30 28° ESE 20:45:13 10° ENE
USA 276 2.7 20:38:37 10° W 20:41:24 37° SSW 20:42:48 23° SSE
SPOT 3 Rocket 3.9 20:38:30 11° S 20:43:29 65° WSW 20:48:42 10° NNW
Cosmos 2084 3.5 20:40:11 10° SW 20:44:17 73° NW 20:48:14 10° NE
Cosmos 2366 rocket 4.1 20:45:59 13° S 20:51:21 61° E 20:57:24 10° NNE
NOSS 2-2 (E) 3.5 20:48:39 10° WSW 20:51:46 53° NW 20:54:54 10° NE
SeaSat 1 4.0 20:47:45 10° E 20:51:49 27° NE 20:55:53 10° NNW
NOSS 2-2 (C) 4.5 20:49:17 10° WSW 20:52:12 36° NW 20:55:13 10° NNE
Landsat 4 3.8 20:49:58 17° S 20:52:26 58° WSW 20:55:50 10° NNW
Cosmos 1544 Rocket 3.6 20:50:26 10° NNW 20:54:46 73° W 20:58:03 17° S
BREEZE-M DEB (TANK) 4.2 20:52:47 10° W 20:56:02 46° SSW 21:03:15 14° SE
Terra 3.2 20:53:20 10° SSW 20:57:35 33° W 21:01:53 10° NNW
NOSS 2-3 (E) 3.9 20:54:22 10° WSW 20:57:59 58° NW 21:02:11 10° NE
Cosmos 1812 4.3 20:58:11 10° NNE 21:00:52 20° ENE 21:02:28 15° ESE
SL-8 Rocket 4.0 20:55:32 11° S 21:01:32 81° E 21:07:52 10° N
USA 305 3.9 21:03:51 10° WNW 21:07:21 36° N 21:10:25 10° ENE
Meteor 1-27 4.2 21:01:47 10° NNW 21:07:30 88° E 21:11:29 20° SSE
ATLAS CENTAUR R/B 3.2 21:05:21 10° WNW 21:08:23 21° WSW 21:10:52 13° SSW
Cosmos 1437 Rocket 2.5 21:07:20 18° SSW 21:09:55 84° WNW 21:13:35 10° N
Cosmos 1833 Rocket 3.0 21:09:01 10° NW 21:14:35 59° WSW 21:18:22 20° S
NOSS 3-1 (A) 4.1 21:16:36 22° SE 21:17:57 25° ESE 21:22:27 10° ENE
Cosmos 44 3.4 21:15:41 10° SW 21:20:57 87° SE 21:26:01 10° NE
Lacrosse 5 3.1 21:19:06 10° W 21:23:56 44° NNW 21:28:47 10° NE
Cosmos 1606 Rocket 3.5 21:23:32 10° N 21:27:52 70° ENE 21:29:59 29° SSE
Cosmos 2082 Rocket 2.5 21:22:24 10° NNW 21:27:59 60° ENE 21:31:39 22° SE
Cosmos 2218 Rocket 4.1 21:23:42 14° SSW 21:29:09 78° WNW 21:35:21 10° N
Cosmos 1726 Rocket 3.8 21:25:48 10° N 21:30:05 56° ENE 21:32:05 29° SE
Landsat 5 4.1 21:26:01 10° N 21:30:20 58° WNW 21:34:11 13° SSW
ATLAS 5 CENTAUR R/B 4.3 21:27:52 10° WNW 21:30:24 18° NNW 21:33:11 10° NNE
USA 307 3.8 21:26:54 10° WNW 21:30:37 42° N 21:34:05 10° ENE
Cosmos 2278 Rocket 2.2 21:31:13 19° S 21:35:17 64° ESE 21:40:55 10° NNE
Cosmos 2298 Rocket 4.5 21:34:24 10° SW 21:39:41 63° WNW 21:45:00 10° NNE
ULPM Upper Stage 3.3 21:37:33 10° NW 21:41:52 56° NE 21:44:39 20° ESE
CZ-2C R/B 3.7 21:39:05 10° NNE 21:43:43 80° ESE 21:46:20 26° S
NOSS 3 (A) 4.4 21:42:18 10° NW 21:44:56 81° NE 21:45:39 49° SE
H-2A R/B 2.8 21:44:33 30° SE 21:46:06 49° ENE 21:49:49 10° N
Cosmos 1536 Rocket 4.4 21:47:10 15° SW 21:50:26 45° WNW 21:54:37 10° N
CZ-4C R/B 3.5 21:45:20 10° NW 21:51:57 55° NE 22:00:06 10° ESE
Iridium 921 4.3 21:53:03 46° S 21:53:57 82° E 21:57:23 10° N
ISS -3.6 21:52:01 10° WNW 21:55:21 72° NNE 21:57:18 23° E
Cosmos 2058 Rocket 3.4 21:51:24 10° N 21:55:42 55° ENE 21:57:25 32° SE
COSMOS 2406 3.2 21:51:53 10° NNW 21:57:37 77° ENE 22:00:48 27° SE
Cosmos 1934 Rocket 4.4 21:54:42 26° SSE 21:58:00 50° E 22:03:58 10° NNE
Cosmos 1782 4.2 21:55:03 10° NNE 21:58:19 26° ENE 21:59:39 21° ESE
Cosmos 482 Debris 4.2 21:53:41 10° WSW 21:58:39 71° SSE 22:02:15 10° ENE
USA 290 2.0 21:58:14 51° SSW 21:58:57 87° ESE 22:02:10 10° NNE
ARIANE 5 R/B 3.0 21:58:54 30° SSW 22:00:55 57° W 22:05:20 10° NNW
Cosmos 1269 Rocket 4.2 21:59:20 10° NNW 22:04:35 64° WSW 22:07:06 31° S
Cosmos 1727 Rocket 4.3 21:58:40 10° NNW 22:04:56 62° W 22:08:48 24° SSW
BREEZE-M DEB (TANK) 4.3 21:59:03 10° WNW 22:04:57 21° WSW 22:06:11 19° SW
ATLAS 3B R/B 3.0 22:01:26 23° S 22:05:56 54° ESE 22:13:19 10° NE
Cosmos 1943 Rocket 2.1 22:08:20 25° SSW 22:11:44 77° ESE 22:17:22 10° NNE
NOSS 8 (E) 4.2 22:09:38 10° NW 22:12:41 88° NE 22:13:30 50° SE
USA 281 3.6 22:09:48 20° SE 22:14:29 60° NE 22:20:56 10° NNW
Cosmos 1821 Rocket 4.4 22:09:49 18° SSW 22:14:29 61° WNW 22:20:50 10° N
Cosmos 2058 2.8 22:19:03 43° S 22:20:21 80° E 22:24:29 10° NNE
ALOS 2 2.5 22:19:19 39° SSE 22:20:57 85° ENE 22:25:22 10° NNW
Gbstr 26 Del rocket 3.7 22:16:21 10° WNW 22:21:20 79° NNE 22:27:36 10° E
Spot 2 4.2 22:20:40 36° SSE 22:22:28 74° ENE 22:26:47 10° NNW
H-2A R/B 3.6 22:20:53 10° NE 22:23:53 20° E 22:24:34 19° ESE
Cosmos 1023 Rocket 4.4 22:19:53 10° NNW 22:25:00 84° WSW 22:27:12 35° SSE
Spot 4 4.0 22:23:23 34° S 22:25:25 66° WSW 22:30:16 10° NNW
Alouette 2 Rocket 3.7 22:24:00 39° S 22:25:32 77° ESE 22:31:10 10° NNE
Cosmos 407 Rocket 3.7 22:20:51 10° NNW 22:26:00 66° ENE 22:28:36 29° SE
Cosmos 2084 Rocket 3.7 22:23:03 10° NW 22:26:49 43° SW 22:27:21 40° SSW
SeaSat 1 2.5 22:26:56 35° S 22:28:55 67° WSW 22:33:50 10° NW
Cosmos 1544 3.5 22:30:25 34° NNW 22:30:25 34° NNW 22:31:56 10° N
NOSS 3-1 (C) 3.7 22:25:43 10° WSW 22:30:42 60° NW 22:36:50 10° NE
Cosmos 192 4.3 22:28:59 35° S 22:31:02 74° ESE 22:36:00 10° NNE
Cosmos 1271 Rocket 3.1 22:33:32 41° SE 22:34:07 45° E 22:37:43 10° NNE
Cosmos 1932 4.5 22:28:23 10° NW 22:34:32 65° WSW 22:37:30 31° SSE
Cosmos 1605 Rocket 4.2 22:32:33 30° SSE 22:35:26 56° E 22:41:26 10° NNE
Cosmos 1812 3.7 22:32:28 10° NNW 22:35:40 32° W 22:36:28 28° WSW
Cosmos 1666 4.3 22:37:15 18° E 22:37:30 19° E 22:39:56 10° NE
USA 305 2.3 22:36:28 10° WNW 22:39:56 67° NNE 22:40:34 49° E
Cosmos 1241 Rocket 4.5 22:34:10 10° NW 22:40:35 78° SW 22:44:08 29° SSE
Cosmos 1238 Rocket 2.5 22:37:55 10° NNW 22:41:18 73° W 22:42:01 53° SSW
BREEZE-M R/B 4.3 22:39:20 10° W 22:44:18 85° S 23:06:00 10° E
Cosmos 1758 Rocket 4.0 22:43:54 37° SE 22:45:03 47° E 22:49:11 10° NNE
Timation 1 Rocket 4.4 22:41:09 10° NNW 22:47:12 78° ENE 22:50:42 26° SE
Cosmos 1500 4.0 22:47:50 30° E 22:48:04 30° E 22:51:05 10° NNE
Cosmos 2251 Rocket 3.5 22:43:10 10° NNW 22:48:35 86° ENE 22:51:00 34° SSE
Cosmos 2297 4.3 22:46:45 31° SSE 22:48:44 42° ESE 22:54:04 10° NE
Cosmos 1626 Rocket 3.4 22:48:21 45° S 22:49:37 77° E 22:53:56 10° NNE
Cosmos 1933 3.3 22:48:13 10° N 22:52:10 72° E 22:53:09 48° SSE
Cosmos 1140 Rocket 3.8 22:48:00 10° NNW 22:53:00 53° WSW 22:54:49 35° SSW
SJ 16-02 4.4 22:59:50 10° NE 23:00:25 10° NE 23:01:00 10° NE
BREEZE-M DEB (TANK) 4.3 22:59:56 10° W 23:03:20 56° SSW 23:13:42 10° ESE
USA 307 2.4 23:00:25 10° WNW 23:04:12 77° NNE 23:05:32 35° ESE
Cosmos-2242 3.0 23:00:33 10° NNW 23:04:45 65° W 23:05:51 45° SSW
Cosmos 1420 Rocket 4.5 23:04:44 34° SSE 23:06:35 48° ESE 23:11:40 10° NNE
CENTAUR R/B 3.9 22:59:54 10° NW 23:07:37 55° NE 23:16:32 10° ESE
Lacrosse 5 3.4 23:03:05 10° WNW 23:07:47 37° N 23:12:31 10° ENE
NOSS 3-1 (A) 3.5 23:03:57 16° WSW 23:08:04 66° NW 23:14:15 10° NE
Cosmos 2082 Rocket 3.5 23:07:06 10° NW 23:11:40 26° WSW 23:13:28 22° SW
Cosmos 2056 Rocket 4.1 23:11:01 32° SSE 23:12:50 44° ESE 23:17:48 10° NE
Cosmos 1515 4.0 23:11:16 10° NNW 23:14:36 44° W 23:14:57 42° WSW
Cosmos 1656 Rocket 3.6 23:13:38 36° S 23:15:53 68° ESE 23:21:25 10° NNE
Cosmos 2278 Rocket 3.9 23:14:55 10° WSW 23:19:49 29° NW 23:24:44 10° NNE
PSLV R/B 3.9 23:16:22 10° N 23:20:37 60° WNW 23:22:20 34° SW
ULPM Upper Stage 3.9 23:17:22 10° WNW 23:20:59 26° WSW 23:20:59 26° WSW
Lacrosse 4 Rocket 2.4 23:20:40 28° ESE 23:21:03 28° ESE 23:24:35 10° NE
H-2A R/B 4.3 23:20:31 16° WSW 23:21:17 17° W 23:23:48 10° NW
Cosmos 2369 Rocket 2.4 23:19:37 35° S 23:21:49 57° ESE 23:27:19 10° NE
Iridium 4 Rocket 3.8 23:23:20 10° N 23:29:04 85° E 23:31:55 32° S
Cosmos 1190 Rocket 4.0 23:25:29 10° NNW 23:30:41 70° WSW 23:32:45 36° S
ISS -1.9 23:28:53 10° W 23:30:09 20° W 23:30:09 20° W
Cosmos 1782 4.0 23:30:41 10° NNW 23:33:57 27° W 23:34:35 26° WSW
Cosmos 676 Rocket 4.0 23:28:52 10° NNW 23:34:05 81° ENE 23:36:47 29° SSE
USA 229 DEB 3.5 23:32:17 29° SSW 23:35:42 76° SE 23:42:32 10° NE
USA 229 3.5 23:32:27 29° SSW 23:35:50 76° SE 23:42:39 10° NE
Cosmos 2263 4.5 23:33:41 33° S 23:36:03 55° ESE 23:41:40 10° NE
Cosmos 1862 3.4 23:35:38 45° SW 23:36:34 62° WNW 23:40:24 10° N
STPSAT 2 (USA 217) 4.5 23:35:38 41° SSW 23:37:11 90° NNE 23:41:42 10° NNE
Cosmos 1378 4.1 23:35:17 10° NNW 23:38:04 27° W 23:38:06 27° W
Cosmos 2346 Rocket 4.4 23:32:23 10° NNW 23:38:31 75° W 23:41:38 31° S
Cosmos 482 Debris 4.5 23:36:35 10° W 23:40:39 58° N 23:43:38 10° ENE
CZ-4C R/B 3.2 23:33:42 10° NW 23:40:40 54° WSW 23:45:35 25° S
COSMOS 2455 3.0 23:35:28 10° NNW 23:41:32 74° NE 23:46:54 13° SE
Cosmos 1340 Rocket 3.6 23:39:20 10° N 23:43:04 44° ENE 23:44:47 27° SE
Meteor 2-21 Rocket 4.5 23:37:54 10° N 23:44:04 79° ENE 23:47:39 27° SSE
Resurs 1-4 Rocket 4.3 23:41:12 10° NE 23:44:24 16° E 23:47:34 10° SE
Cosmos 2221 2.4 23:41:12 10° N 23:45:27 86° W 23:46:52 42° S
Cosmos 2285 Rocket 4.3 23:46:20 10° NNW 23:52:33 53° WSW 23:55:34 30° SSW
Cosmos 1825 Rocket 3.5 23:54:06 41° SSW 23:55:36 81° W 23:59:56 10° N
